Printer-friendly version

IAU Minor Planet Center

Minor Planet Center

MPEC 2003-P19 : COMET P/2003 H4 (LINEAR)

The following Minor Planet Electronic Circular may be linked-to from your own Web pages, but must not otherwise be redistributed electronically.


Read MPEC 2003-P18 Read MPEC 2003-P20


M.P.E.C. 2003-P19                                Issued 2003 Aug. 5, 20:19 UT

     The Minor Planet Electronic Circulars contain information on unusual
         minor planets and routine data on comets.  They are published
   on behalf of Commission 20 of the International Astronomical Union by the
          Minor Planet Center, Smithsonian Astrophysical Observatory,
                          Cambridge, MA 02138, U.S.A.

             Prepared using the Tamkin Foundation Computer Network

                              MPC@CFA.HARVARD.EDU
          URL http://cfa-www.harvard.edu/iau/mpc.html  ISSN 1523-6714

                           COMET P/2003 H4 (LINEAR)

Observations:
    PK03H040  C2003 07 07.50266 16 09 14.64 +01 17 37.5          18.4 T      360
    PK03H040  C2003 07 07.50725 16 09 14.80 +01 17 38.0                      360
    PK03H040  C2003 07 18.92740 16 18 04.81 +01 24 03.6          18.1 N      442
    PK03H040  C2003 07 18.93141 16 18 05.18 +01 24 12.7          18.2 N      442
    PK03H040  C2003 07 23.18606 16 22 07.59 +01 16 23.8          19.2 T      644
    PK03H040  C2003 07 23.20720 16 22 08.78 +01 16 20.9          18.8 T      644
    PK03H040  C2003 07 23.22841 16 22 10.01 +01 16 18.3          19.2 T      644
    PK03H040  C2003 07 30.19552 16 29 36.49 +00 55 21.5          19.3 T      644
    PK03H040  C2003 07 30.21640 16 29 37.89 +00 55 16.8          19.7 T      644
    PK03H040  C2003 07 30.23725 16 29 39.26 +00 55 11.9          19.3 T      644
    PK03H040  C2003 07 31.50672 16 31 06.93 +00 50 23.5          19.4 T      360
    PK03H040  C2003 07 31.51171 16 31 07.23 +00 50 22.3                      360
    PK03H040  C2003 07 31.51705 16 31 07.57 +00 50 20.5                      360
    PK03H040  C2003 08 02.86952 16 33 54.49 +00 40 46.0                      118
    PK03H040  C2003 08 02.89569 16 33 56.53 +00 40 39.9                      118

Observer details:
118 Modra.  Observer A. Galad.  0.6-m f/5.5 reflector + CCD.
360 Kuma Kogen.  Observer A. Nakamura.  0.60-m f/5.8 Ritchey-Chretien + CCD.
442 Gualba Observatory.  Observer A. Sanchez.  0.31-m f/3.3 Schmidt-Cassegrain
    + CCD.
644 Palomar Mountain/NEAT.  Observers R. Bambery, E. Helin, S. Pravdo,
    M. Hicks, K. Lawrence, R. Thicksten.  1.2-m Schmidt + CCD.

Orbital elements:
    P/2003 H4 (LINEAR)
Epoch 2003 May 1.0 TT = JDT 2452760.5
T 2003 May 14.30254 TT                                  MPC
q   1.7031108            (2000.0)            P               Q
n   0.16151024     Peri.   10.44627     -0.54769878     +0.80528416
a   3.3394070      Node   226.79351     -0.78834849     -0.58758712
e   0.4899960      Incl.   18.14819     -0.28023688     +0.07911258
P   6.10
Residuals in seconds of arc
030429 704  0.5-  1.5+    030520 360  0.6+  0.0     030603 704  0.7-  0.5-
030429 704  0.4+  0.7-    030520 360  0.2+  0.3-    030603 704  0.6-  0.8-
030429 704  0.0   0.2-    030521 620  0.1-  0.1+    030603 213  0.6-  0.2-
030429 704  0.3-  0.3-    030521 620  0.1+  0.1+    030603 213  1.1-  0.4-
030429 704  1.0-  0.7+    030521 204  0.2-  0.3-    030603 213  0.9-  0.1+
030430 704  0.0   0.8+    030521 204  0.1-  0.0     030604 H41  0.2+  0.5-
030430 704  0.4+  0.3+    030521 204  0.5-  0.3-    030605 360  0.2-  0.0
030430 704  1.2+  0.1+    030522 H41  0.0   0.8+    030605 360  0.3+  0.1+
030430 704  0.5+  0.5+    030522 H41  1.3+  0.5+    030607 H41 (2.7+  1.2-)
030430 704  0.1+  0.5-    030523 691  0.7-  0.4-    030607 H41 (2.7+  1.2-)
030430 704  0.2+  0.1-    030523 691  0.8-  0.2-    030608 H41  0.5+  0.0
030430 704  0.2+  0.2-    030523 H41  0.5+  0.0     030608 H41  0.4+  1.0+
030430 704  0.6+  0.5+    030523 H41  0.9-  0.1-    030608 E14  0.1+  0.5+
030430 704  0.8+  0.1+    030523 691  1.6-  1.0-    030608 E14  0.5+  0.4+
030430 704  0.3+  0.1-    030523 118  0.9+  0.1-    030608 E14  0.2+  0.4+
030430 704  0.3-  0.2+    030523 118  0.7+  0.2+    030609 H41  0.2-  0.0
030430 704  0.4-  0.2+    030523 118  0.2-  0.2-    030616 118  0.3+  0.1+
030430 704  0.3-  0.2+    030523 118  0.6+  0.3-    030616 118  0.3-  0.3+
030430 704  1.1+  0.1+    030524 H41  0.0   0.5+    030616 118  0.2-  0.7+
030502 704  0.9+  0.9-    030524 H41  0.6+  0.0     030616 118  0.2+  0.2+
030502 704 (1.0+  2.0-)   030525 118  0.4+  0.1-    030620 215  0.0   0.2+
030502 704  0.5-  0.4+    030525 118  0.1+  0.1-    030620 215  0.5+  1.1+
030502 704  0.5-  0.2+    030525 118  0.1-  0.6+    030620 215  0.3+  0.5-
030502 704  0.3-  1.9-    030525 118  0.3-  0.6+    030621 213  0.4+  0.2+
030502 704  0.4-  0.3+    030525 118  0.3+  0.3-    030621 213  0.0   0.5-
030502 704  0.1+  1.8-    030525 J95  0.1+  0.5-    030621 213  1.1-  1.2-
030502 704  0.4-  0.3+    030525 J95  0.2+  0.4-    030621 A02  0.4-  1.0-
030502 704 (0.2+  2.2-)   030525 J95  0.0   0.0     030621 A02  0.3+  1.6-
030502 428  0.3-  0.3-    030526 H41 (0.6+  3.1-)   030621 A02  0.6+  0.5-
030502 428 (2.1-  1.2+)   030526 H41  1.6-  0.9-    030622 H41 (7.3-  3.0+)
030502 E14  0.4+  0.1+    030526 H41  0.7+  0.4+    030622 H41 (7.6-  1.2-)
030502 E14  0.4-  0.3+    030526 608  0.7+  0.7+    030623 H41  0.6-  0.8+
030502 E14  0.0   0.8+    030526 608  0.4+  0.7+    030624 H41  0.5+  0.4+
030503 213  0.5-  0.3-    030526 608  1.0+  0.8+    030624 H41  0.3-  0.8-
030504 235 (4.2-  5.3-)   030527 H41  0.1+  0.1-    030625 H41  0.1+  0.9-
030504 246  0.0   0.0     030527 H41  1.3+  0.5-    030625 H41  0.1-  0.0
030504 246  0.0   0.1-    030528 H41  0.1-  0.1+    030626 360  0.2-  0.0
030504 246  0.3+  0.0     030528 H41  0.3-  0.7-    030626 360  0.1-  0.0
030504 246  0.2+  0.1+    030528 H41  0.1+  0.2-    030627 H41 (0.4+  2.7-)
030504 246  0.1+  0.0     030529 H41  0.3-  0.4+    030627 H41  0.2-  0.8+
030504 246  0.3+  0.0     030529 H41  0.8+  0.7+    030627 118  1.0-  0.7-
030504 170  0.7-  0.5+    030530 H41  1.1+  0.5+    030627 118  0.1-  0.3-
030504 170  0.8-  0.2+    030530 H41  0.7+  0.5+    030627 118  0.9+  0.5-
030504 170  0.9-  0.1+    030531 A02  0.8-  0.0     030627 118  0.8-  0.2+
030504 170  0.9-  0.0     030531 A02  0.3-  0.4-    030629 704  0.1+  0.0
030505 704  0.7-  0.3+    030531 H41  0.4-  1.2+    030629 704  1.0+  0.3+
030505 704  1.3-  0.1+    030531 H41  0.1-  0.4+    030629 704  0.8-  0.1+
030505 704  1.0-  0.0     030531 159  0.7+  0.5+    030629 704  0.1+  0.7+
030505 704  0.6-  0.3+    030531 159  0.1-  0.3-    030629 704  0.1+  0.5+
030505 704  0.9-  0.3+    030531 159  1.6+  0.2+    030629 608  0.1+  0.3+
030505 360  0.1+  0.1-    030601 691  0.0   0.0     030629 608  0.2-  0.1+
030505 360  0.4+  0.7-    030601 691  0.3-  0.4-    030629 608  0.4-  0.7+
030505 360  0.3+  0.2-    030601 691  0.3-  0.3-    030707 360  0.1-  0.6+
030506 118  0.3+  0.2-    030601 360  0.0   0.2-    030707 360  0.1-  0.4+
030506 118  0.3-  1.0-    030601 360  0.3+  0.3-    030718 442 (5.3+ 13.8+)
030508 372  0.1+  0.0     030601 246  0.4+  0.8-    030718 442 (7.8+ 23.2+)
030509 372  0.0   0.8-    030601 246  0.3+  0.5-    030723 644  0.1+  0.2+
030509 360  0.3+  0.2+    030601 246  0.1+  0.6-    030723 644  0.1-  0.2+
030509 360  0.6+  0.4+    030601 246  0.1+  0.4-    030723 644  0.2+  0.5+
030509 360  0.4+  0.1+    030603 118  0.3+  1.3+    030730 644  0.3-  0.6+
030510 170  0.7-  0.0     030603 118  0.2+  0.8+    030730 644  0.1+  0.5+
030510 170  0.1-  0.1+    030603 118  0.1+  0.9+    030730 644  0.1+  0.2+
030510 213 (4.0+  3.8-)   030603 118  0.3+  0.3+    030731 360  0.4+  0.4-
030510 213 (1.5+  5.1-)   030603 H41  0.3-  0.3-    030731 360  0.1-  0.4-
030512 608  0.1+  0.1+    030603 H41  0.6+  0.0     030731 360  0.4-  1.0-
030512 608  0.5+  0.1+    030603 704  0.3-  0.2-    030802 118  1.7-  0.9-
030512 608  0.4+  0.0     030603 704  1.0-  0.6-    030802 118  1.2+  0.3-
030520 360  0.5+  0.6-    030603 704  1.0-  0.6-

Brian G. Marsden             (C) Copyright 2003 MPC           M.P.E.C. 2003-P19

Read MPEC 2003-P18 Read MPEC 2003-P20


Our Web policy. Index to the CBAT/MPC/ICQ pages.


Valid HTML 4.01!